Regional Weather Roundup
Issued by NWS Northern Indiana

Home | Current Version | Previous Version | Graphics & Text | Print | Product List | Glossary On
Versions: 1 2 3 4 5 6 7 8 9 10 11 12 13 14 15 16 17 18 19 20 21 22 23 24 25 26 27 28 29 30 31 32 33 34 35 36 37 38 39 40 41 42 43 44 45 46 47 48 49 50
000
ASUS43 KIWX 280010
RWRIWX

KIWX WEATHER ROUNDUP
NATIONAL WEATHER SERVICE NORTHERN INDIANA
800 PM EDT FRI MAR 27 2015

NOTE: "FAIR" INDICATES FEW OR NO CLOUDS BELOW 12,000 FEET WITH NO
SIGNIFICANT WEATHER AND/OR OBSTRUCTIONS TO VISIBILITY.

* THESE STATIONS ARE NOT UNDER NWS QUALITY CONTROL. THEY ALSO MAY NOT
  REPORT WEATHER SUCH AS PRECIPITATION OR FOG.

INZ001>027-280100-
NORTHERN INDIANA

CITY           SKY/WX    TMP DP  RH WIND       PRES   REMARKS
GARY*          PTCLDY    27  10  50 N22       30.19R WCI  12
VALPARAISO     CLEAR     22  11  62 N14G22    30.16R WCI   9
6HR MIN TEMP:  22; 6HR MAX TEMP:  29; 6HR PCP: TRACE;

MICHIGAN CITY* MOCLDY    23   9  54 N13G23    30.17S WCI  11
LAPORTE*       MOCLDY    25  14  61 N18       30.15S WCI  12
6HR MIN TEMP:  25; 6HR MAX TEMP:  30;

KNOX*            N/A     23  -2  33 N18G24    30.15S WCI   9
SOUTH BEND     CLOUDY    23  10  57 N18       30.14R WCI   9
6HR MIN TEMP:  23; 6HR MAX TEMP:  30; 6HR PCP: TRACE;

ELKHART*       CLEAR     23   7  50 NW9       30.13R WCI  13
GOSHEN         CLEAR     24  10  55 NW20      30.10R WCI  10
6HR MIN TEMP:  24; 6HR MAX TEMP:  32;

MONTICELLO*    MOCLDY    26  15  64 N16       30.15R WCI  13
6HR MIN TEMP:  26; 6HR MAX TEMP:  33;

LOGANSPORT*    FLURRIES  27  18  69 N15G23    30.14R WCI  15
ROCHESTER*     CLOUDY    27  12  54 N17       30.13R WCI  14
WARSAW*        CLEAR     23   9  54 NW13G21   30.11R WCI  11
ANGOLA*        CLEAR     27   9  46 NW7       30.05R WCI  19
FORT WAYNE     PTCLDY    28  10  46 NW15      30.07R WCI  16
6HR MIN TEMP:  28; 6HR MAX TEMP:  33; 6HR PCP: TRACE;

HUNTINGTON*    PTCLDY    25   6  45 NW7       30.09R WCI  17
6HR MIN TEMP:  25; 6HR MAX TEMP:  32;

PERU/GRISSOM   CLOUDY    25  14  63 NW17G25   30.10R WCI  11
6HR MIN TEMP:  26; 6HR MAX TEMP:  33; 6HR PCP: TRACE;

MARION*        CLOUDY    26  11  53 NW17      30.10R WCI  13
6HR MIN TEMP:  -9; 6HR MAX TEMP:  69;


$$
INZ028>050-280100-
CENTRAL INDIANA

CITY           SKY/WX    TMP DP  RH WIND       PRES   REMARKS
LAFAYETTE      CLEAR     25  10  53 N8        30.15R WCI  16
6HR MIN TEMP:  25; 6HR MAX TEMP:  33; 6HR PCP: TRACE;

KOKOMO*          N/A     27  12  54 N16G23    30.11R WCI  14
6HR MIN TEMP:  27; 6HR MAX TEMP:  34;

MUNCIE*        CLOUDY    28  14  55 NW15      30.07R WCI  16
6HR MIN TEMP:  28; 6HR MAX TEMP:  31; 6HR PCP: TRACE;

INDIANAPOLIS   FLURRIES  28  14  55 N14       30.09R WCI  17
6HR MIN TEMP:  28; 6HR MAX TEMP:  35; 6HR PCP: TRACE;


$$
MIZ043>046-050>051-056>058-064>065-071>073-077>080-280100-
SOUTHWEST LOWER MICHIGAN

CITY           SKY/WX    TMP DP  RH WIND       PRES   REMARKS
BATTLE CREEK   CLEAR     27   2  34 NW10      30.07R WCI  17
6HR MIN TEMP:  27; 6HR MAX TEMP:  31;

BENTON HARBOR  PTCLDY    21  10  62 N9G17     30.15S WCI  11
6HR MIN TEMP:  21; 6HR MAX TEMP:  27; 6HR PCP: TRACE;

COLDWATER*     CLEAR     26   0  31 NW9       30.05R WCI  17
6HR MIN TEMP:  26; 6HR MAX TEMP:  31;

HILLSDALE*     CLEAR     25   2  37 N8        30.04R WCI  16
6HR MIN TEMP:  25; 6HR MAX TEMP:  29;

HOLLAND        CLEAR     24  10  55 NW8       30.13R WCI  15
6HR MIN TEMP:  24; 6HR MAX TEMP:  29;

GRAND RAPIDS   PTCLDY    26   0  32 N14       30.09R WCI  14
6HR MIN TEMP:  26; 6HR MAX TEMP:  31;

KALAMAZOO      CLEAR     25   8  48 NW17      30.09R WCI  12
6HR MIN TEMP:  25; 6HR MAX TEMP:  32;

STURGIS*       PTCLDY    25  10  54 NW8G16    30.07R WCI  16
THREE RIVERS*  FAIR      25  11  55 NW14      30.10R WCI  13

$$
OHZ001>008-015>018-024>025-280100-
NORTHWEST OHIO

CITY           SKY/WX    TMP DP  RH WIND       PRES   REMARKS
WAUSEON*       FAIR      25   7  46 N8        30.06R WCI  16
DEFIANCE       PTCLDY    27   6  41 N10       30.07R WCI  17
6HR MIN TEMP:  27; 6HR MAX TEMP:  32;

FINDLAY        PTCLDY    26   7  44 N12       30.04R WCI  16
6HR MIN TEMP:  26; 6HR MAX TEMP:  30; 6HR PCP: TRACE;

TOLEDO EXPRESS PTCLDY    24  12  60 N6        30.07R WCI  17
6HR MIN TEMP:  24; 6HR MAX TEMP:  28; 6HR PCP: TRACE;

TOLEDO METCALF CLOUDY    25  11  55 NW10      30.08R WCI  15
6HR MIN TEMP:  25; 6HR MAX TEMP:  29; 6HR PCP: TRACE;

LIMA           CLOUDY    28  11  48 N10       30.04R WCI  19
6HR MIN TEMP:  28; 6HR MAX TEMP:  29;


$$
AND FOR LAKE MICHIGAN COASTAL AND OPEN LAKE BUOY OBSERVATIONS

STATION/POSITION TEMP    WIND        PRES    VSBY  WAVE
                 AIR SEA DIR/SP/G                  HT/PER
                 (F)     (DEG/KT/KT) (MB)    (MI)  (FT/S)
CALUMET HARBOR    25     340/ 12/ 17 1021.0R
MICHIGAN CITY     24     340/ 24/ 28   N/A
BURNS HARBOR      25     360/ 18/ 24 1022.0F
SAINT JOSEPH      24     330/ 19/ 22 1021.7R

$$
&&


USA.gov is the U.S. government's official web portal to all federal, state and local government web resources and services.